Tracking 19288 objects as of 20-Nov-2018
HD Live streaming from Space Station
objects crossing your sky now

COSMOS 1538

Track COSMOS 1538 now!
10-day predictions
COSMOS 1538 is classified as:


NORAD ID: 14759
Int'l Code: 1984-019A
Perigee: 772.4 km
Apogee: 801.3 km
Inclination: 74.0 °
Period: 100.4 minutes
Semi major axis: 7157 km
RCS: 2.0376 m2 (large)
Launch date: February 21, 1984
Source: Commonwealth of Independent States (former USSR) (CIS)
Launch site: PLESETSK MISSILE AND SPACE COMPLEX (PKMTR)
aabbcc
Your satellite tracking list
Your tracking list is empty




NASA's NSSDC Master Catalog

Two Line Element Set (TLE):
1 14759U 84019A   18324.45481363 -.00000002  00000-0  85330-5 0  9997
2 14759  74.0391 297.8483 0020199  38.8411 321.4188 14.33598952816774
Source of the keplerian elements: AFSPC